Flag Weather past 2 weeks in Port Hedland, Western Australia, Australia

Now
88 °F

Clear.


Feels Like: 93 °F
Forecast: 80 / 96 °F
Wind: 18 mph from Northwest

Location: Port Hedland Pardoo

Current Time: Nov 28, 2014 at 6:23:06 PM

Latest Report: Nov 28, 2014 at 6:00 PM


Visibility: N/A

Pressure: 29.74 "Hg

Humidity: 55%

Dew point: 70 °F

Location of Port HedlandLocation

Historic Weather in Port Hedland — Graph

°F

Port Hedland temperature yesterday

Maximum temperature yesterday: 102 °F (at 1:30 PM)
Minimum temperature yesterday: 79 °F (at 3:30 AM)
Average temperature yesterday: 88 °F

Past Weeks' High & Low Weather Summary

 TemperatureHumidityPressure
High104 °F (Nov 20, 12:30 PM)94% (Nov 18, 2:30 AM)29.92 "Hg (Nov 18, 2:30 AM)
Low72 °F (Nov 21, 5:30 AM)9% (Nov 14, 8:30 AM)29.65 "Hg (Nov 13, 5:00 PM)
Average86 °F53%29.80 "Hg
* Reported Nov 13 5:00 PM — Nov 28 5:00 PM, Port Hedland, Weather by CustomWeather, © 2014

Note: Actual official high and low records may vary slightly from our data, if they occured in-between our weather recording intervals... More about our weather records

Advertising

Port Hedland weather history for previous 24 hours

 ConditionsComfort  
Time TempWeatherWind HumidityBarometerVisibility
5:00 PM
Nov 28
91 °FSunny.17 mph49%29.74 "HgN/A
4:00 PM95 °FSunny.18 mph47%29.71 "HgN/A
3:30 PM95 °FSunny.18 mph44%29.71 "HgN/A
3:00 PM97 °FSunny.20 mph37%29.71 "HgN/A
2:30 PM97 °FSunny.17 mph37%29.71 "HgN/A
2:00 PM97 °FSunny.18 mph39%29.74 "HgN/A
1:30 PM97 °FSunny.17 mph39%29.74 "HgN/A
1:00 PM97 °FSunny.15 mph42%29.77 "HgN/A
12:30 PM97 °FSunny.15 mph39%29.77 "HgN/A
12:00 PM95 °FSunny.15 mph36%29.77 "HgN/A
11:30 AM97 °FSunny.15 mph37%29.80 "HgN/A
11:00 AM97 °FSunny.13 mph39%29.80 "HgN/A
10:30 AM95 °FSunny.12 mph36%29.80 "HgN/A
10:00 AM95 °FSunny.9 mph39%29.83 "HgN/A
9:30 AM95 °FSunny.8 mph36%29.83 "HgN/A
9:00 AM91 °FSunny.8 mph41%29.83 "HgN/A
8:30 AM90 °FSunny.7 mph46%29.83 "HgN/A
8:00 AM90 °FSunny.6 mph46%29.83 "HgN/A
7:30 AM88 °FSunny.7 mph49%29.83 "HgN/A
7:00 AM88 °FSunny.8 mph46%29.83 "HgN/A
6:30 AM84 °FSunny.7 mph55%29.83 "HgN/A
6:00 AM81 °FSunny.6 mph70%29.83 "HgN/A
5:30 AM81 °FSunny.2 mph70%29.80 "HgN/A
5:00 AM79 °FSunny.6 mph74%29.80 "HgN/A
4:30 AM79 °FSunny.5 mph74%29.80 "HgN/A
4:00 AM81 °FClear.5 mph74%29.80 "HgN/A
3:30 AM79 °FClear.5 mph79%29.77 "HgN/A
3:00 AM79 °FPassing clouds.No wind74%29.80 "HgN/A
2:30 AM81 °FPassing clouds.6 mph74%29.77 "HgN/A
2:00 AM82 °FClear.6 mph70%29.77 "HgN/A
1:30 AM82 °FClear.7 mph70%29.80 "HgN/A
1:00 AM81 °FClear.8 mph79%29.80 "HgN/A
12:30 AM82 °FClear.7 mph74%29.80 "HgN/A
12:00 AM82 °FClear.10 mph74%29.80 "HgN/A
11:30 PM
Nov 27
82 °FClear.14 mph74%29.80 "HgN/A
11:00 PM82 °FClear.12 mph74%29.80 "HgN/A
10:30 PM82 °FClear.12 mph74%29.80 "HgN/A
10:00 PM82 °FClear.12 mph74%29.80 "HgN/A
9:30 PM82 °FClear.12 mph74%29.80 "HgN/A
9:00 PM84 °FClear.14 mph74%29.80 "HgN/A
8:30 PM84 °FClear.13 mph74%29.77 "HgN/A
8:00 PM84 °FClear.13 mph70%29.77 "HgN/A
7:30 PM84 °FClear.12 mph70%29.77 "HgN/A
7:00 PM84 °FClear.13 mph70%29.74 "HgN/A
6:30 PM86 °FClear.13 mph66%29.74 "HgN/A
6:00 PM88 °FClear.15 mph62%29.71 "HgN/A
Weather by CustomWeather, © 2014

See weather overviewHow to use our weather pages